Home > Weather > Anderson > Past weeks

Flag for USA Past Weather in Anderson, South Carolina, USA — Yesterday and Last 2 Weeks

Now
71 °F

Fog.


Feels Like: 67 °F
Forecast: 68 / 90 °F
Wind: No wind

Location: Anderson County Airport

Current Time: Jun 29, 2016 at 8:49:33 AM

Latest Report: Jun 29, 2016 at 7:56 AM


Visibility: 5 mi

Pressure: 29.96 "Hg

Humidity: 93%

Dew Point: 69 °F

Location of AndersonLocation

Past Weather in Anderson — Graph

°F

Anderson Temperature Yesterday

Maximum temperature yesterday: 85 °F (at 1:56 PM)
Minimum temperature yesterday: 71 °F (at 4:56 AM)
Average temperature yesterday: 77 °F

High & Low Weather Summary for the Past Weeks

 TemperatureHumidityPressure
High99 °F (Jun 16, 3:56 PM)97% (Jun 29, 3:56 AM)30.37 "Hg (Jun 29, 3:56 AM)
Low58 °F (Jun 20, 5:56 AM)25% (Jun 16, 4:56 PM)29.71 "Hg (Jun 17, 4:56 PM)
Average82 °F58%30.02 "Hg
* Reported Jun 14 6:56 AM — Jun 29 6:56 AM, Anderson, Weather by CustomWeather, © 2016

Note: Actual official high and low records may vary slightly from our data, if they occured in-between our weather recording intervals... More about our weather records

Advertising

Anderson Weather History for the Previous 24 Hours

Scroll right to see more
 ConditionsComfort  
Time TempWeatherWind HumidityBarometerVisibility
6:56 AM
Wed, Jun 29
66 °FClear.No wind93%29.95 "Hg10 mi
5:56 AM67 °FClear.No wind93%29.93 "Hg9 mi
4:56 AM66 °FClear.3 mph93%29.93 "Hg9 mi
3:56 AM67 °FClear.No wind97%29.92 "Hg10 mi
2:56 AM68 °FClear.3 mph93%29.93 "Hg10 mi
1:56 AM70 °FClear.3 mph87%29.94 "Hg10 mi
12:56 AM70 °FClear.No wind90%29.95 "Hg10 mi
11:56 PM
Tue, Jun 28
72 °FClear.No wind87%29.96 "Hg10 mi
10:56 PM73 °FClear.No wind84%29.97 "Hg10 mi
9:56 PM75 °FClear.No wind76%29.97 "Hg10 mi
8:56 PM79 °FSunny.No wind65%29.96 "Hg10 mi
7:56 PM81 °FSunny.No wind60%29.95 "Hg10 mi
6:56 PM82 °FSunny.5 mph56%29.93 "Hg10 mi
5:56 PM84 °FPassing clouds.5 mph51%29.93 "Hg10 mi
4:56 PM83 °FPartly sunny.3 mph55%29.95 "Hg10 mi
3:56 PM83 °FPartly sunny.7 mph53%29.96 "Hg10 mi
2:56 PM85 °FPassing clouds.7 mph55%29.96 "Hg10 mi
1:56 PM85 °FPartly sunny.8 mph57%29.98 "Hg10 mi
12:56 PM84 °FScattered clouds.8 mph63%29.99 "Hg10 mi
11:56 AM79 °FLight rain. Overcast.5 mph77%30.01 "Hg10 mi
10:56 AM78 °FOvercast.5 mph76%30.01 "Hg10 mi
9:56 AM77 °FMostly cloudy.No wind82%30.01 "Hg10 mi
8:56 AM76 °FPartly sunny.5 mph85%30.00 "Hg10 mi
Weather by CustomWeather, © 2016

See weather overviewHow to use our weather pages